Regional Weather Roundup
Issued by NWS Cleveland, OH

Home | Current Version | Previous Version | Text Only | Print | Product List | Glossary Off
Versions: 1 2 3 4 5 6 7 8 9 10 11 12 13 14 15 16 17 18 19 20 21 22 23 24 25 26 27 28 29 30 31 32 33 34 35 36 37 38 39 40 41 42 43 44 45 46 47 48 49 50

000
ASUS41 KCLE 011310
RWRCLE
OHIO REGIONAL WEATHER ROUNDUP
NATIONAL WEATHER SERVICE CLEVELAND, OH
900 AM EDT WED OCT 01 2014

NOTE: "FAIR" INDICATES FEW OR NO CLOUDS BELOW 12,000 FEET WITH NO
SIGNIFICANT WEATHER AND/OR OBSTRUCTIONS TO VISIBILITY.

OHZ001>008-015>018-024>027-034-035-043-044-011400-
   NORTHWEST OHIO

CITY           SKY/WX    TMP DP  RH WIND       PRES   REMARKS
DEFIANCE       CLOUDY    51  48  89 NE3       30.06R FOG
FINDLAY        FOG       51  49  92 N5        30.04R VSB 1
TOLEDO EXPRESS CLOUDY    48  48 100 CALM      30.06R FOG
TOLEDO EXEC    PTSUNNY   51  48  89 NW3       30.06R
LIMA           FOG       51  49  92 CALM      30.05R VSB 1/4
$$

OHZ009>014-019>023-028>033-038-089-011400-
   NORTHEAST OHIO

CITY           SKY/WX    TMP DP  RH WIND       PRES   REMARKS
CLE-HOPKINS    CLOUDY    58  55  90 CALM      30.05R
CLE-LAKEFRONT  PTSUNNY   63  55  75 N6        30.02S
CUY CO. ARPT   PTSUNNY   61  59  94 NE5       30.03R
LORAIN-ELYRIA  CLOUDY    61  56  83 CALM      30.04R
ASHTABULA      FOG       54  54 100 CALM      30.03S VSB<1/4
AKRON-CANTON   CLOUDY    57  54  89 N5        30.02S
WOOSTER        CLOUDY    57  53  86 N3        30.04R
MANSFIELD      CLOUDY    54  54 100 NE5       30.04R FOG
YOUNGSTOWN     FOG       55  55 100 NE5       30.02S VSB 1/8
$$

OHZ042-051>053-060>062-070>072-077>081-011400-
  SOUTHWEST OHIO

CITY           SKY/WX    TMP DP  RH WIND       PRES   REMARKS
CINC-COVINGTON SUNNY     54  50  86 E5        30.02R
CINC-LUNKEN    CLOUDY    50  50 100 CALM      30.05R FOG
HAMILTON       CLOUDY    50  49  96 CALM      30.05R
DAYTON         FOG       51  51 100 E5        30.05R VSB 1/8
WRIGHT-PAT AFB FOG       52  52 100 NE5       30.04R VSB 1
DAYTON GENERAL FOG       49  49 100 NE3       30.03R VSB 1/4
WILMINGTON     FOG       51  50  96 SE6       30.03R VSB<1/4
$$

OHZ036-037-039>041-045>050-054>059-063>069-073>076-082>088-011400-
  CENTRAL AND SOUTHEAST OHIO

CITY           SKY/WX    TMP DP  RH WIND       PRES   REMARKS
COLUMBUS       CLOUDY    56  52  86 CALM      30.02R
OSU AIRPORT    FOG       52  51  97 CALM      30.03R VSB 1/2
BOLTON FIELD   CLOUDY    54  54 100 NE3       30.04R FOG
RICKENBACK AFB CLOUDY    53  52  95 E3        30.03R FOG
NEWARK         CLOUDY    55  53  93 CALM      30.03R FOG
MARION         FOG       50  48  93 CALM      30.04R VSB 3/4
LANCASTER      CLOUDY    55  53  93 CALM      30.03R FOG
ZANESVILLE     CLOUDY    56  53  90 N3        30.02R FOG
NEW PHILLY     CLOUDY    57  56  96 CALM      30.03R FOG
$$



USA.gov is the U.S. government's official web portal to all federal, state and local government web resources and services.